Tracking 20719 objects as of 26-May-2020
HD Live streaming from Space Station
objects crossing your sky now

SAKURA 2A (CS-2A)

Track SAKURA 2A (CS-2A) now!
SAKURA 2A (CS-2A) is classified as:


NORAD ID: 13782
Int'l Code: 1983-006A
Perigee: 36,007.6 km
Apogee: 36,069.7 km
Inclination: 13.8 °
Period: 1,448.6 minutes
Semi major axis: 42409 km
RCS: 5.8102 m2 (large)
Launch date: February 4, 1983
Source: Japan (JPN)
Launch site: TANEGASHIMA SPACE CENTER (TNSTA)
aabbcc
Your satellite tracking list
Your tracking list is empty




NASA's NSSDC Master Catalog

Two Line Element Set (TLE):
1 13782U 83006A   20145.15716559  .00000080  00000-0  00000+0 0  9996
2 13782  13.7617 338.0679 0007321 303.9895  58.8813  0.99404627105879
Source of the keplerian elements: AFSPC